Regional Weather Roundup
Issued by NWS Albany, NY

Home | Current Version | Previous Version | Text Only | Print | Product List | Glossary On
Versions: 1 2 3 4 5 6 7 8 9 10 11 12 13 14 15 16 17 18 19 20 21 22 23 24 25 26 27 28 29 30 31 32 33 34 35 36 37 38 39 40 41 42 43 44 45 46 47 48 49 50
000
ASUS41 KALY 182210
RWRALY

NEW YORK STATE HOURLY WEATHER ROUNDUP
NATIONAL WEATHER SERVICE ALBANY NY
600 PM EDT SAT APR 18 2015

NOTE: "FAIR" INDICATES FEW OR NO CLOUDS BELOW 12,000 FEET WITH NO
SIGNIFICANT WEATHER AND/OR NO OBSTRUCTIONS TO VISIBILITY.

NYZ032-033-038>043-046>054-057>066-NYZ062>081-182300-
EAST


CITY           SKY/WX    TMP DP  RH WIND       PRES   REMARKS
ALBANY         MOSUNNY   70  27  20 NW22G37   29.92R
GLENS FALLS    SUNNY     66  23  19 NW17G29   29.92R
POUGHKEEPSIE   SUNNY     79  34  19 W16G30    29.85R
NEWBURGH       MOSUNNY   77  37  24 NW21G32   29.87R
MONTGOMERY     SUNNY     79  36  21 N15G25    29.86R
WHITE PLAINS   MOSUNNY   71  42  35 S9        29.85R
ISLIP          MOSUNNY   64  45  49 SW14      29.87R
NEW YORK CITY  MOSUNNY   73  41  31 S13G21    29.85F
CENTRAL PARK   SUNNY     76  41  28 S7        29.87F
$$

NYZ005>009-017-018-044>046-055-056-182300-
CENTRAL


CITY           SKY/WX    TMP DP  RH WIND       PRES   REMARKS
FULTON         SUNNY     62  27  26 NW8G20    30.06R
SYRACUSE       MOSUNNY   65  28  24 N20       30.04R
ROME           SUNNY     64  29  26 NW20G29   30.01R
ELMIRA         SUNNY     69  30  23 N20G31    30.02R
BINGHAMTON     SUNNY     63  25  23 NW17G29   30.01R
MONTICELLO     SUNNY     70  30  23 NW21G28   29.95R
$$

NYZ026>034-041>043-182300-
NORTH


CITY           SKY/WX    TMP DP  RH WIND       PRES   REMARKS
WATERTOWN      SUNNY     63  22  20 N17       30.04R
FORT DRUM      NOT AVBL
MASSENA        PTSUNNY   57  29  34 NW10G22   30.04R
SARANAC LAKE   MOSUNNY   52  28  39 W9G24     29.97R
PLATTSBURGH    SUNNY     51  35  54 N17       29.98R
$$

NYZ001>004-010>016-019>021-182300-
WEST


CITY           SKY/WX    TMP DP  RH WIND       PRES   REMARKS
NIAGARA FALLS  MOSUNNY   62  26  25 N13       30.10R
BUFFALO        MOSUNNY   62  23  22 N16G22    30.10R
DUNKIRK        SUNNY     61  26  26 NE9       30.12R
JAMESTOWN      SUNNY     61  28  29 N12G20    30.11R
WELLSVILLE     SUNNY     64  34  32 NW12G21   30.08R
ROCHESTER      MOSUNNY   64  24  21 NW13G22   30.08R
PENN YAN       SUNNY     64  26  23 NW18G24   30.07R
$$

             KEY
       WCI = WIND CHILL INDEX
       VSB = VISIBILITY
       HX  = HEAT INDEX
$$


USA.gov is the U.S. government's official web portal to all federal, state and local government web resources and services.